TimeBST,TemperatureF,Dew PointF,Humidity,Sea Level PressureIn,VisibilityMPH,Wind Direction,Wind SpeedMPH,Gust SpeedMPH,PrecipitationIn,Events,Conditions,WindDirDegrees,DateUTC
12:50 AM,47,46,96,29.80,2,ENE,3.5,,,,Mostly Cloudy,60,2012-10-05 23:50:00
12:50 AM,48.2,46.4,93,29.77,1.6,ENE,3.5,-,N/A,,Scattered Clouds,60,2012-10-05 23:50:00
1:50 AM,46.4,44.6,93,29.77,-9999.0,NNE,6.9,-,N/A,,Mostly Cloudy,20,2012-10-06 00:50:00
2:50 AM,46.4,44.6,93,29.77,4.3,North,9.2,-,N/A,,Mostly Cloudy,10,2012-10-06 01:50:00
3:50 AM,46,44,89,29.80,5,NNE,8.1,,,,Scattered Clouds,30,2012-10-06 02:50:00
3:50 AM,46.4,44.6,93,29.80,5.0,NNE,8.1,-,N/A,,Mostly Cloudy,30,2012-10-06 02:50:00
4:50 AM,46.4,42.8,87,29.80,4.3,NNE,5.8,-,N/A,,Mostly Cloudy,20,2012-10-06 03:50:00
5:50 AM,46.4,44.6,93,29.80,6.2,NNE,4.6,-,N/A,,Mostly Cloudy,30,2012-10-06 04:50:00
6:50 AM,46,44,89,29.83,25,North,2.3,,,Rain,Light Rain,10,2012-10-06 05:50:00
6:50 AM,46.4,44.6,93,29.80,6.2,North,2.3,-,N/A,,Mostly Cloudy,10,2012-10-06 05:50:00
7:50 AM,44.6,44.6,100,29.83,6.2,NNW,2.3,-,N/A,,Scattered Clouds,340,2012-10-06 06:50:00
8:50 AM,46.4,44.6,93,29.89,6.2,WNW,3.5,-,N/A,,Partly Cloudy,290,2012-10-06 07:50:00
9:50 AM,49,44,77,29.91,25,NNW,4.6,,,,Scattered Clouds,340,2012-10-06 08:50:00
9:50 AM,50.0,44.6,82,29.89,6.2,NNW,4.6,-,N/A,,Partly Cloudy,340,2012-10-06 08:50:00
10:50 AM,51.8,42.8,71,29.92,6.2,NNW,6.9,-,N/A,,Partly Cloudy,330,2012-10-06 09:50:00
11:50 AM,53.6,42.8,67,29.92,6.2,NNW,6.9,-,N/A,,Partly Cloudy,330,2012-10-06 10:50:00
12:50 PM,56,44,53,29.94,25,NE,4.6,,,,Scattered Clouds,40,2012-10-06 11:50:00
12:50 PM,55.4,44.6,67,29.92,6.2,NE,4.6,-,N/A,,Partly Cloudy,40,2012-10-06 11:50:00
1:50 PM,57.2,42.8,59,29.95,6.2,North,5.8,-,N/A,,Partly Cloudy,360,2012-10-06 12:50:00
2:50 PM,57.2,42.8,59,29.95,6.2,North,4.6,-,N/A,,Partly Cloudy,360,2012-10-06 13:50:00
3:50 PM,58,43,46,29.95,31,NNE,4.6,,,,Scattered Clouds,30,2012-10-06 14:50:00
3:50 PM,59.0,42.8,55,29.95,6.2,NNE,4.6,-,N/A,,Partly Cloudy,30,2012-10-06 14:50:00
4:50 PM,59.0,44.6,59,29.95,6.2,East,3.5,-,N/A,,Scattered Clouds,90,2012-10-06 15:50:00
5:50 PM,57.2,44.6,63,29.95,6.2,NE,2.3,-,N/A,,Partly Cloudy,40,2012-10-06 16:50:00
6:50 PM,53,46,69,29.98,31,North,3.5,,,,Scattered Clouds,10,2012-10-06 17:50:00
6:50 PM,53.6,46.4,77,29.98,6.2,North,3.5,-,N/A,,Partly Cloudy,10,2012-10-06 17:50:00
7:50 PM,51.8,46.4,82,29.98,6.2,NW,2.3,-,N/A,,Scattered Clouds,310,2012-10-06 18:50:00
8:50 PM,50.0,46.4,87,30.01,6.2,North,4.6,-,N/A,,Scattered Clouds,360,2012-10-06 19:50:00
9:50 PM,47,44,85,30.03,19,NW,2.3,,,,,320,2012-10-06 20:50:00
9:50 PM,46.4,44.6,93,30.01,6.2,NW,2.3,-,N/A,,Unknown,320,2012-10-06 20:50:00
10:50 PM,44.6,42.8,93,30.01,6.2,NW,3.5,-,N/A,,Unknown,320,2012-10-06 21:50:00
11:50 PM,44.6,41.0,87,30.04,6.2,NW,2.3,-,N/A,,Unknown,320,2012-10-06 22:50:00